Homestead AFB, FL

8:41 PM EDT on June 22, 2017 (GMT -0400)
Dade County-Homestead Regional

Weather History for KHST - March, 2013

Change the Weather History Date:

Tuesday, March 26, 2013

  Actual Average Record
Temperature  
Mean Temperature 63 °F -  
Max Temperature 71 °F 79 °F 91 °F (1955)
Min Temperature 52 °F 59 °F 36 °F (1947)
Degree Days  
Heating Degree Days 2    
Growing Degree Days 13 (Base 50)    
Moisture  
Dew Point 40 °F    
Average Humidity 43    
Maximum Humidity 62    
Minimum Humidity 25    
Precipitation  
Precipitation 0.00 in - - ()
Sea Level Pressure  
Sea Level Pressure 30.11 in    
Wind  
Wind Speed 14 mph (NNW)    
Max Wind Speed 18 mph    
Max Gust Speed 25 mph    
Visibility 10 miles    
Events      
Averages and records for this station are not official NWS values.
T = Trace of Precipitation, MM = Missing Value Source: NWS Daily Summary

Daily Weather History Graph

Daily Weather History Graph

Search for Another Location

Airport or City:

Trip Planner

Search our weather history database for the weather conditions in past years. The results will help you decide how hot, cold, wet, or windy it might be!

Date:

Astronomy

Mar. 26, 2013 Rise Set
Actual Time 7:18 AM EDT 7:35 PM EDT
Civil Twilight 6:55 AM EDT 7:58 PM EDT
Nautical Twilight 6:29 AM EDT 8:25 PM EDT
Astronomical Twilight 6:02 AM EDT 8:52 PM EDT
Moon 7:09 PM EDT (3/26) 6:32 AM EDT (3/26)
Length of Visible Light 13h 02m
Length of Day
12h 16m
Waxing Gibbous, 99% of the Moon is Illuminated
Mar 26
Waxing Gibbous
Mar 27
Full
Apr 3
Last Quarter
Apr 10
New
Apr 18
First Quarter

Hourly Weather History & Observations

Time (EDT) Temp. Dew Point Humidity Pressure Visibility Wind Dir Wind Speed Gust Speed Precip Events Conditions
12:58 AM 65.1 °F 40.1 °F 40% 30.04 in 10.0 mi NNW 15.0 mph - N/A   Mostly Cloudy
1:58 AM 63.7 °F 40.3 °F 42% 30.03 in 10.0 mi NNW 12.7 mph - N/A   Mostly Cloudy
2:58 AM 62.8 °F 38.5 °F 41% 30.02 in 10.0 mi NNW 16.1 mph 23.0 mph N/A   Mostly Cloudy
3:58 AM 60.4 °F 36.3 °F 41% 30.03 in 10.0 mi NNW 18.4 mph - N/A   Overcast
4:58 AM 58.8 °F 40.3 °F 50% 30.04 in 10.0 mi NNW 17.3 mph - N/A   Overcast
5:58 AM 57.9 °F 43.0 °F 58% 30.04 in 10.0 mi NNW 12.7 mph - N/A   Scattered Clouds
6:58 AM 57.4 °F 44.6 °F 62% 30.07 in 10.0 mi NNW 11.5 mph - N/A   Mostly Cloudy
7:58 AM 57.9 °F 44.4 °F 61% 30.08 in 10.0 mi North 13.8 mph - N/A   Mostly Cloudy
8:58 AM 58.8 °F 45.7 °F 62% 30.10 in 10.0 mi North 17.3 mph - N/A   Scattered Clouds
9:58 AM 61.3 °F 45.5 °F 56% 30.12 in 10.0 mi North 17.3 mph - N/A   Clear
10:58 AM 61.3 °F 42.1 °F 49% 30.13 in 10.0 mi North 17.3 mph - N/A   Scattered Clouds
11:58 AM 64.9 °F 43.0 °F 45% 30.14 in 10.0 mi North 12.7 mph - N/A   Clear
12:27 PM 66.2 °F 42.8 °F 43% 30.12 in 10.0 mi NW 17.3 mph 19.6 mph N/A   Clear
12:58 PM 67.8 °F 41.7 °F 39% 30.13 in 10.0 mi NNW 13.8 mph - N/A   Clear
1:12 PM 68.0 °F 42.8 °F 40% 30.11 in 10.0 mi North 13.8 mph - N/A   Clear
1:58 PM 68.7 °F 41.0 °F 36% 30.11 in 10.0 mi NNW 15.0 mph - N/A   Clear
2:58 PM 69.3 °F 35.2 °F 29% 30.11 in 10.0 mi NNW 15.0 mph 25.3 mph N/A   Clear
3:09 PM 69.8 °F 35.6 °F 28% 30.09 in 10.0 mi NW 12.7 mph - N/A   Clear
3:58 PM 70.5 °F 37.8 °F 30% 30.09 in 10.0 mi NNW 15.0 mph 21.9 mph N/A   Clear
4:05 PM 71.6 °F 33.8 °F 25% 30.08 in 10.0 mi WNW 13.8 mph 21.9 mph N/A   Clear
4:58 PM 70.9 °F 34.2 °F 26% 30.09 in 10.0 mi NNW 15.0 mph 20.7 mph N/A   Clear
5:58 PM 69.4 °F 35.2 °F 28% 30.11 in 10.0 mi NNW 17.3 mph 21.9 mph N/A   Clear
6:58 PM 67.3 °F 37.4 °F 33% 30.12 in 10.0 mi NW 10.4 mph - N/A   Clear
7:56 PM 64.4 °F 37.4 °F 37% 30.13 in 10.0 mi NNW 9.2 mph - N/A   Light Drizzle
7:58 PM 63.9 °F 37.8 °F 38% 30.15 in 10.0 mi NNW 8.1 mph - N/A   Light Drizzle
8:05 PM 62.6 °F 39.2 °F 42% 30.14 in 10.0 mi NNW 6.9 mph - N/A   Clear
8:58 PM 60.6 °F 41.2 °F 49% 30.18 in 10.0 mi NW 10.4 mph - 0.00 in   Clear
9:58 PM 58.3 °F 39.0 °F 49% 30.21 in 10.0 mi NNW 10.4 mph - N/A   Clear
10:58 PM 55.8 °F 34.2 °F 44% 30.23 in 10.0 mi NNW 12.7 mph - N/A   Clear
11:58 PM 52.9 °F 36.7 °F 54% 30.23 in 10.0 mi NNW 11.5 mph - N/A   Clear